小惑星2008 JS14

2008 JS14

English version
Home page
Total 6,336 html files since Dec. 4, 1995
Updated on September 7, 2008

---------------------------------------------------------------------

・ プロフィール

発見日 2008年5月6日
発見光度 19.1等
発見者 Siding Spring Survey

・ 軌道要素

The following orbital elements are taken from MPEC 2008-P34:

Epoch 2008 May 14.0 TT = JDT 2454600.5                  MPC
M 359.22981              (2000.0)            P               Q
n   0.02454170     Peri.    2.04878     +0.69449416     +0.64157851
a  11.7273428      Node   312.15307     -0.66621637     +0.40248601
e   0.7443501      Incl.   26.05782     -0.27172339     +0.65297934
P  40.2            H   13.3           G   0.15           U   3
From 59 observations 2008 May 6-Aug. 6, mean residual 0".29.

・ 光度変化

        H = 13.0  G = 0.15

---------------------------------------------------------------------

軌道要素はMPCのEphemerides and Orbital Elementsに掲載されたものです。
光度グラフはComet for Windowsで作成したものです。

---------------------------------------------------------------------

Copyright(C) 1995-2008 Seiichi Yoshida (comet@aerith.net). All rights reserved.